VELOX 1

导读

VELOX-1是新加坡南洋理工大学学生团队研发的3U立方体纳卫星,于2014年6月30日发射升空。作为新加坡学生自主研制的技术验证卫星,它承载多项新技术验证任务,验证了自研展开机构、光学延伸管等关键组件设计方案。其成功入轨并完成地面通信与核心载荷任务,为南洋理工大学后续微型卫星项目积累了宝贵飞行经验,也标志着新加坡在微小卫星研制领域取得重要进展。

Basic Information
目录编号:
40057
目录名称:
VELOX 1
国际标识:
2014-034E
轨道中心:
EARTH
卫星名称:
VELOX 1
卫星全名:
--
卫星状态:
在轨 (已飞行4450 天)
发射日期:
2014-06-30 UTC
国别 :
新加坡 (SG)
星等 :
--
Orbit Information
数据来源 国际轨道数据
星历时间: 2026-09-05T03:15:46+0800
5小时前
查看轨道信息
半长轴: 6949.662km
偏心率: 0.0007932
轨道倾角: 98.243°
近地点辐角 12.549°
升交点赤经 157.325°
平近点角 347.592°
近地点: 566.012km
远地点: 577.038km
周期: 96.096分钟
每日圈数: 14.985019
Detailed Information
使用方式:
暂无
2D Orbit Map
3D Orbit Map
Orbit Altitude Analysis Chart
Orbit Inclination Analysis Chart
Orbit Comprehensive Analysis Chart
View Comprehensive Chart
Conjunction Data List
Event ID Objects TCA Miss Dist (km) Collision Risk Probability Collision Risk Index (CRI) Action
CDM_260906-083904-005705-591623
VELOX 1 (40057)
2026-09-06T
08:39:26+0000
0.184 km
中距离
6.842995E-4 高风险 0.92
CDM_260905-074504-005706-708421
VELOX 1 (40057)
2026-09-05T
07:45:56+0000
1.123 km
极远距离
1.690191E-5 中风险 0.6
CDM_260907-181204-005706-174121
VELOX 1 (40057)
OBJECT G (61741)
2026-09-07T
18:12:01+0000
1.257 km
极远距离
8.858151E-6 低风险 0.54
CDM_260907-155704-005705-540621
VELOX 1 (40057)
2026-09-07T
15:57:25+0000
1.604 km
极远距离
5.432823E-6 低风险 0.5
CDM_260905-085904-005705-431123
VELOX 1 (40057)
2026-09-05T
08:59:36+0000
1.690 km
极远距离
4.625966E-6 低风险 0.48
CDM_260905-060904-005706-708421
VELOX 1 (40057)
2026-09-05T
06:09:47+0000
1.824 km
极远距离
3.438898E-6 低风险 0.46
CDM_260907-150904-005705-540621
VELOX 1 (40057)
2026-09-07T
15:09:18+0000
1.937 km
极远距离
3.130446E-6 低风险 0.45
CDM_260906-024904-005705-566223
VELOX 1 (40057)
2026-09-06T
02:49:27+0000
1.969 km
极远距离
2.448072E-6 低风险 0.43
CDM_260905-235004-005705-591622
VELOX 1 (40057)
2026-09-05T
23:50:30+0000
1.838 km
极远距离
2.290457E-6 低风险 0.42
CDM_260905-092204-005706-708421
VELOX 1 (40057)
2026-09-05T
09:22:06+0000
2.902 km
极远距离
1.316676E-6 低风险 0.37